Year,Month,Day,Hour,Minute,Value (Times are PST for temperature in C)
2010,07,26,09,18,19.90
2010,07,26,09,19,19.90
2010,07,26,09,20,20.00
2010,07,26,09,21,20.00
2010,07,26,09,22,20.10
2010,07,26,09,23,20.10
2010,07,26,09,24,20.10
2010,07,26,09,25,20.10
2010,07,26,09,26,20.20
2010,07,26,09,27,20.20
2010,07,26,09,28,20.30
2010,07,26,09,29,20.30
2010,07,26,09,30,20.40
2010,07,26,09,31,20.40
2010,07,26,09,32,20.40
2010,07,26,09,33,20.30
2010,07,26,09,34,20.30
2010,07,26,09,35,20.30
2010,07,26,09,36,20.30
2010,07,26,09,37,20.30
2010,07,26,09,38,20.30
2010,07,26,09,39,20.30
2010,07,26,09,40,20.30
2010,07,26,09,41,20.40
2010,07,26,09,42,20.40
2010,07,26,09,43,20.40
2010,07,26,09,44,20.40
2010,07,26,09,45,20.30
2010,07,26,09,46,20.30
2010,07,26,09,47,20.30
2010,07,26,09,48,20.30
2010,07,26,09,49,20.30
2010,07,26,09,50,20.20
2010,07,26,09,51,20.30
2010,07,26,09,52,20.30
2010,07,26,09,53,20.30
2010,07,26,09,54,20.40
2010,07,26,09,55,20.40
2010,07,26,09,56,20.50
2010,07,26,09,57,20.60
2010,07,26,09,58,20.70
2010,07,26,09,59,20.70
2010,07,26,10,00,20.70
2010,07,26,10,01,20.80
2010,07,26,10,02,20.80
2010,07,26,10,03,20.80
2010,07,26,10,04,20.80
2010,07,26,10,05,20.70
2010,07,26,10,06,20.70
2010,07,26,10,07,20.70
2010,07,26,10,08,20.70
2010,07,26,10,09,20.70
2010,07,26,10,10,20.80
2010,07,26,10,11,20.80
2010,07,26,10,12,20.70
2010,07,26,10,13,20.80
2010,07,26,10,14,20.80
2010,07,26,10,15,20.80
2010,07,26,10,16,20.90
2010,07,26,10,17,21.00
2010,07,26,10,18,21.10
2010,07,26,10,19,21.10
2010,07,26,10,20,21.20
2010,07,26,10,21,21.20
2010,07,26,10,22,21.20
2010,07,26,10,23,21.20
2010,07,26,10,24,21.30
2010,07,26,10,25,21.30
2010,07,26,10,26,21.40
2010,07,26,10,27,21.50
2010,07,26,10,28,21.60
2010,07,26,10,29,21.70
2010,07,26,10,30,21.80
2010,07,26,10,31,21.90
2010,07,26,10,32,22.00
2010,07,26,10,33,22.10
2010,07,26,10,34,22.20
2010,07,26,10,35,22.40
2010,07,26,10,36,22.50
2010,07,26,10,37,22.70
2010,07,26,10,38,22.80
2010,07,26,10,39,23.00
2010,07,26,10,40,23.10
2010,07,26,10,41,23.30
2010,07,26,10,42,23.40
2010,07,26,10,43,23.60
2010,07,26,10,44,23.70
2010,07,26,10,45,23.80
2010,07,26,10,46,23.70
2010,07,26,10,47,23.60
2010,07,26,10,48,23.50
2010,07,26,10,49,23.40
2010,07,26,10,50,23.30
2010,07,26,10,51,23.20
2010,07,26,10,52,23.20
2010,07,26,10,53,23.10
2010,07,26,10,54,23.10
2010,07,26,10,55,23.00
2010,07,26,10,56,22.90
2010,07,26,10,57,22.90
2010,07,26,10,58,22.90
2010,07,26,10,59,22.90
2010,07,26,11,00,23.00
2010,07,26,11,01,23.10
2010,07,26,11,02,23.10
2010,07,26,11,03,23.20
2010,07,26,11,04,23.20
2010,07,26,11,05,23.20
2010,07,26,11,06,23.20
2010,07,26,11,07,23.10
2010,07,26,11,08,23.10
2010,07,26,11,09,23.00
2010,07,26,11,10,23.00
2010,07,26,11,11,22.90
2010,07,26,11,12,22.80
2010,07,26,11,13,22.80
2010,07,26,11,14,22.70
2010,07,26,11,15,22.70
2010,07,26,11,16,22.70
2010,07,26,11,17,22.70
2010,07,26,11,18,22.70
2010,07,26,11,19,22.80
2010,07,26,11,20,22.80
2010,07,26,11,21,22.80
2010,07,26,11,22,22.80
2010,07,26,11,23,22.70
2010,07,26,11,24,22.60
2010,07,26,11,25,22.60
2010,07,26,11,26,22.70
2010,07,26,11,27,22.70
2010,07,26,11,28,22.70
2010,07,26,11,29,22.80
2010,07,26,11,30,22.80
2010,07,26,11,31,22.80
2010,07,26,11,32,22.80
2010,07,26,11,33,22.90
2010,07,26,11,34,22.90
2010,07,26,11,35,23.00
2010,07,26,11,36,23.10
2010,07,26,11,37,23.20
2010,07,26,11,38,23.40
2010,07,26,11,39,23.50
2010,07,26,11,40,23.60
2010,07,26,11,41,23.70
2010,07,26,11,42,23.80
2010,07,26,11,43,23.80
2010,07,26,11,44,23.80
2010,07,26,11,45,23.70
2010,07,26,11,46,23.60
2010,07,26,11,47,23.60
2010,07,26,11,48,23.60
2010,07,26,11,49,23.60
2010,07,26,11,50,23.60
2010,07,26,11,51,23.60
2010,07,26,11,52,23.60
2010,07,26,11,53,23.60
2010,07,26,11,54,23.60
2010,07,26,11,55,23.50
2010,07,26,11,56,23.60
2010,07,26,11,57,23.60
2010,07,26,11,58,23.70
2010,07,26,11,59,23.80
2010,07,26,12,00,23.90
2010,07,26,12,01,24.00
2010,07,26,12,02,24.10
2010,07,26,12,03,24.10
2010,07,26,12,04,24.10
2010,07,26,12,05,24.20
2010,07,26,12,06,24.20
2010,07,26,12,07,24.20
2010,07,26,12,08,24.30
2010,07,26,12,09,24.30
2010,07,26,12,10,24.20
2010,07,26,12,11,24.20
2010,07,26,12,12,24.20
2010,07,26,12,13,24.20
2010,07,26,12,14,24.30
2010,07,26,12,15,24.30
2010,07,26,12,16,24.40
2010,07,26,12,17,24.50
2010,07,26,12,18,24.50
2010,07,26,12,19,24.40
2010,07,26,12,20,24.30
2010,07,26,12,21,24.20
2010,07,26,12,22,24.20
2010,07,26,12,23,24.10
2010,07,26,12,24,24.00
2010,07,26,12,25,24.00
2010,07,26,12,26,24.00
2010,07,26,12,27,24.00
2010,07,26,12,28,24.10
2010,07,26,12,29,24.20
2010,07,26,12,30,24.30
2010,07,26,12,31,24.40
2010,07,26,12,32,24.40
2010,07,26,12,33,24.30
2010,07,26,12,34,24.30
2010,07,26,12,35,24.30
2010,07,26,12,36,24.30
2010,07,26,12,37,24.30
2010,07,26,12,38,24.20
2010,07,26,12,39,24.20
2010,07,26,12,40,24.20
2010,07,26,12,41,24.20
2010,07,26,12,42,24.30
2010,07,26,12,43,24.30
2010,07,26,12,44,24.30
2010,07,26,12,45,24.30
2010,07,26,12,46,24.20
2010,07,26,12,47,24.10
2010,07,26,12,48,24.20
2010,07,26,12,49,24.20
2010,07,26,12,50,24.20
2010,07,26,12,51,24.20
2010,07,26,12,52,24.20
2010,07,26,12,53,24.20
2010,07,26,12,54,24.10
2010,07,26,12,55,24.00
2010,07,26,12,56,24.10
2010,07,26,12,57,24.20
2010,07,26,12,58,24.30
2010,07,26,12,59,24.40
2010,07,26,13,00,24.50
2010,07,26,13,01,24.50
2010,07,26,13,02,24.60
2010,07,26,13,03,24.60
2010,07,26,13,04,24.60
2010,07,26,13,05,24.60
2010,07,26,13,06,24.60
2010,07,26,13,07,24.60
2010,07,26,13,08,24.70
2010,07,26,13,09,24.70
2010,07,26,13,10,24.80
2010,07,26,13,11,25.00
2010,07,26,13,12,25.00
2010,07,26,13,13,24.90
2010,07,26,13,14,24.80
2010,07,26,13,15,24.70
2010,07,26,13,16,24.70
2010,07,26,13,17,24.60
2010,07,26,13,18,24.60
2010,07,26,13,19,24.60
2010,07,26,13,20,24.60
2010,07,26,13,21,24.70
2010,07,26,13,22,24.70
2010,07,26,13,23,24.70
2010,07,26,13,24,24.80
2010,07,26,13,25,24.90
2010,07,26,13,26,25.10
2010,07,26,13,27,25.20
2010,07,26,13,28,25.20
2010,07,26,13,29,25.30
2010,07,26,13,30,25.30
2010,07,26,13,31,25.20
2010,07,26,13,32,25.20
2010,07,26,13,33,25.10
2010,07,26,13,34,25.00
2010,07,26,13,35,25.00
2010,07,26,13,36,25.00
2010,07,26,13,37,25.10
2010,07,26,13,38,25.10
2010,07,26,13,39,25.20
2010,07,26,13,40,25.30
2010,07,26,13,41,25.30
2010,07,26,13,42,25.30
2010,07,26,13,43,25.30
2010,07,26,13,44,25.30
2010,07,26,13,45,25.30
2010,07,26,13,46,25.30
2010,07,26,13,47,25.30
2010,07,26,13,48,25.30
2010,07,26,13,49,25.30
2010,07,26,13,50,25.30
2010,07,26,13,51,25.20
2010,07,26,13,52,25.00
2010,07,26,13,53,25.00
2010,07,26,13,54,25.00
2010,07,26,13,55,25.00
2010,07,26,13,56,25.10
2010,07,26,13,57,25.10
2010,07,26,13,58,25.10
2010,07,26,13,59,25.20
2010,07,26,14,00,25.10
2010,07,26,14,01,25.10
2010,07,26,14,02,25.10
2010,07,26,14,03,25.10
2010,07,26,14,04,25.00
2010,07,26,14,05,24.90
2010,07,26,14,06,24.80
2010,07,26,14,07,24.80
2010,07,26,14,08,24.70
2010,07,26,14,09,24.70
2010,07,26,14,10,24.60
2010,07,26,14,11,24.60
2010,07,26,14,12,24.60
2010,07,26,14,13,24.70
2010,07,26,14,14,24.80
2010,07,26,14,15,24.80
2010,07,26,14,16,24.80
2010,07,26,14,17,24.70
2010,07,26,14,18,24.80
2010,07,26,14,19,24.80
2010,07,26,14,20,24.80
2010,07,26,14,21,24.80
2010,07,26,14,22,24.90
2010,07,26,14,23,24.90
2010,07,26,14,24,24.80
2010,07,26,14,25,24.80
2010,07,26,14,26,24.80
2010,07,26,14,27,24.90
2010,07,26,14,28,24.90
2010,07,26,14,29,24.90
2010,07,26,14,30,24.80
2010,07,26,14,31,24.70
2010,07,26,14,32,24.60
2010,07,26,14,33,24.60
2010,07,26,14,34,24.60
2010,07,26,14,35,24.70
2010,07,26,14,36,24.80
2010,07,26,14,37,24.90
2010,07,26,14,38,24.90
2010,07,26,14,39,25.00
2010,07,26,14,40,24.90
2010,07,26,14,41,24.80
2010,07,26,14,42,24.70
2010,07,26,14,43,24.70
2010,07,26,14,44,24.80
2010,07,26,14,45,24.80
2010,07,26,14,46,24.90
2010,07,26,14,47,24.90
2010,07,26,14,48,25.00
2010,07,26,14,49,25.20
2010,07,26,14,50,25.20
2010,07,26,14,51,25.20
2010,07,26,14,52,25.20
2010,07,26,14,53,25.20
2010,07,26,14,54,25.10
2010,07,26,14,55,25.10
2010,07,26,14,56,25.00
2010,07,26,14,57,24.90
2010,07,26,14,58,24.90
2010,07,26,14,59,24.90
2010,07,26,15,00,24.90
2010,07,26,15,01,24.90
2010,07,26,15,02,25.00
2010,07,26,15,03,25.10
2010,07,26,15,04,25.20
2010,07,26,15,05,25.20
2010,07,26,15,06,25.20
2010,07,26,15,07,25.20
2010,07,26,15,08,25.20
2010,07,26,15,09,25.30
2010,07,26,15,10,25.30
2010,07,26,15,11,25.30
2010,07,26,15,12,25.30
2010,07,26,15,13,25.30
2010,07,26,15,14,25.30
2010,07,26,15,15,25.40
2010,07,26,15,16,25.40
2010,07,26,15,17,25.40
2010,07,26,15,18,25.40
2010,07,26,15,19,25.30
2010,07,26,15,20,25.30
2010,07,26,15,21,25.30
2010,07,26,15,22,25.30
2010,07,26,15,23,25.30
2010,07,26,15,24,25.40
2010,07,26,15,25,25.50
2010,07,26,15,26,25.60
2010,07,26,15,27,25.60
2010,07,26,15,28,25.60
2010,07,26,15,29,25.50
2010,07,26,15,30,25.50
2010,07,26,15,31,25.40
2010,07,26,15,32,25.30
2010,07,26,15,33,25.00
2010,07,26,15,34,24.70
2010,07,26,15,35,24.50
2010,07,26,15,36,24.30
2010,07,26,15,37,24.30
2010,07,26,15,38,24.30
2010,07,26,15,39,24.30
2010,07,26,15,40,24.30
2010,07,26,15,41,24.20
2010,07,26,15,42,24.20
2010,07,26,15,43,24.20
2010,07,26,15,44,24.10
2010,07,26,15,45,24.10
2010,07,26,15,46,24.10
2010,07,26,15,47,24.10
2010,07,26,15,48,24.10
2010,07,26,15,49,24.20
2010,07,26,15,50,24.10
2010,07,26,15,51,24.00
2010,07,26,15,52,23.80
2010,07,26,15,53,23.80
2010,07,26,15,54,23.70
2010,07,26,15,55,23.60
2010,07,26,15,56,23.60
2010,07,26,15,57,23.50
2010,07,26,15,58,23.40
2010,07,26,15,59,23.40
2010,07,26,16,00,23.50
2010,07,26,16,01,23.60
2010,07,26,16,02,23.60
2010,07,26,16,03,23.60
2010,07,26,16,04,23.60
2010,07,26,16,05,23.60
2010,07,26,16,06,23.70
2010,07,26,16,07,23.70
2010,07,26,16,08,23.60
2010,07,26,16,09,23.60
2010,07,26,16,10,23.60
2010,07,26,16,11,23.50
2010,07,26,16,12,23.40
2010,07,26,16,13,23.20
2010,07,26,16,14,23.10
2010,07,26,16,15,23.00
2010,07,26,16,16,22.90
2010,07,26,16,17,22.80
2010,07,26,16,18,22.70
2010,07,26,16,19,22.60
2010,07,26,16,20,22.50
2010,07,26,16,21,22.40
2010,07,26,16,22,22.30
2010,07,26,16,23,22.20
2010,07,26,16,24,22.10
2010,07,26,16,25,21.90
2010,07,26,16,26,21.90
2010,07,26,16,27,21.80
2010,07,26,16,28,21.80
2010,07,26,16,29,21.80
2010,07,26,16,30,21.80
2010,07,26,16,31,21.80
2010,07,26,16,32,21.80
2010,07,26,16,33,21.90
2010,07,26,16,34,22.00
2010,07,26,16,35,22.10
2010,07,26,16,36,22.10
2010,07,26,16,37,22.20
2010,07,26,16,38,22.20
2010,07,26,16,39,22.20
2010,07,26,16,40,22.20
2010,07,26,16,41,22.20
2010,07,26,16,42,22.20
2010,07,26,16,43,22.20
2010,07,26,16,44,22.20
2010,07,26,16,45,22.10
2010,07,26,16,46,22.10
2010,07,26,16,47,22.10
2010,07,26,16,48,22.00
2010,07,26,16,49,22.00
2010,07,26,16,50,22.00
2010,07,26,16,51,22.00
2010,07,26,16,52,22.00
2010,07,26,16,53,22.00
2010,07,26,16,54,21.90
2010,07,26,16,55,21.90
2010,07,26,16,56,21.80
2010,07,26,16,57,21.70
2010,07,26,16,58,21.70
2010,07,26,16,59,21.70
2010,07,26,17,00,21.70
2010,07,26,17,01,21.80
2010,07,26,17,02,21.80
2010,07,26,17,03,21.80
2010,07,26,17,04,21.90
2010,07,26,17,05,21.90
2010,07,26,17,06,21.90
2010,07,26,17,07,21.90
2010,07,26,17,08,21.90
2010,07,26,17,09,21.90
2010,07,26,17,10,21.80
2010,07,26,17,11,21.80
2010,07,26,17,12,21.80
2010,07,26,17,13,21.90
2010,07,26,17,14,22.00
2010,07,26,17,15,22.00
2010,07,26,17,16,22.10
2010,07,26,17,17,22.20
2010,07,26,17,18,22.20
2010,07,26,17,19,22.20
2010,07,26,17,20,22.20
2010,07,26,17,21,22.10
2010,07,26,17,22,22.10
2010,07,26,17,23,22.20
2010,07,26,17,24,22.20
2010,07,26,17,25,22.30
2010,07,26,17,26,22.30
2010,07,26,17,27,22.30
2010,07,26,17,28,22.10
2010,07,26,17,29,21.90
2010,07,26,17,30,21.80
2010,07,26,17,31,21.60
2010,07,26,17,32,21.30
2010,07,26,17,33,21.10
2010,07,26,17,34,20.90
2010,07,26,17,35,20.80
2010,07,26,17,36,20.70
2010,07,26,17,37,20.70
2010,07,26,17,38,20.70
2010,07,26,17,39,20.60
2010,07,26,17,40,20.60
2010,07,26,17,41,20.60
2010,07,26,17,42,20.60
2010,07,26,17,43,20.60
2010,07,26,17,44,20.50
2010,07,26,17,45,20.50
2010,07,26,17,46,20.40
2010,07,26,17,47,20.40
2010,07,26,17,48,20.40
2010,07,26,17,49,20.40
2010,07,26,17,50,20.40
2010,07,26,17,51,20.40
2010,07,26,17,52,20.30
2010,07,26,17,53,20.30
2010,07,26,17,54,20.30
2010,07,26,17,55,20.40
2010,07,26,17,56,20.40
2010,07,26,17,57,20.40
2010,07,26,17,58,20.40
2010,07,26,17,59,20.40
2010,07,26,18,00,20.50
2010,07,26,18,01,20.50
2010,07,26,18,02,20.50
2010,07,26,18,03,20.50
2010,07,26,18,04,20.40
2010,07,26,18,05,20.40
2010,07,26,18,06,20.40
2010,07,26,18,07,20.40
2010,07,26,18,08,20.40
2010,07,26,18,09,20.30
2010,07,26,18,10,20.30
2010,07,26,18,11,20.20
2010,07,26,18,12,20.20
2010,07,26,18,13,20.10
2010,07,26,18,14,20.10
2010,07,26,18,15,20.20
2010,07,26,18,16,20.20
2010,07,26,18,17,20.20
2010,07,26,18,18,20.20
2010,07,26,18,19,20.20
2010,07,26,18,20,20.20
2010,07,26,18,21,20.20
2010,07,26,18,22,20.30
2010,07,26,18,23,20.30
2010,07,26,18,24,20.30
2010,07,26,18,25,20.30
2010,07,26,18,26,20.30
2010,07,26,18,27,20.40
2010,07,26,18,28,20.40
2010,07,26,18,29,20.40
2010,07,26,18,30,20.40
2010,07,26,18,31,20.40
2010,07,26,18,32,20.50
2010,07,26,18,33,20.50
2010,07,26,18,34,20.50
2010,07,26,18,35,20.40
2010,07,26,18,36,20.50
2010,07,26,18,37,20.50
2010,07,26,18,38,20.50
2010,07,26,18,39,20.50
2010,07,26,18,40,20.60
2010,07,26,18,41,20.60
2010,07,26,18,42,20.70
2010,07,26,18,43,20.70
2010,07,26,18,44,20.70
2010,07,26,18,45,20.70
2010,07,26,18,46,20.80
2010,07,26,18,47,20.80
2010,07,26,18,48,20.80
2010,07,26,18,49,20.80
2010,07,26,18,50,20.80
2010,07,26,18,51,20.80
2010,07,26,18,52,20.70
2010,07,26,18,53,20.70
2010,07,26,18,54,20.70
2010,07,26,18,55,20.70
2010,07,26,18,56,20.70
2010,07,26,18,57,20.70
2010,07,26,18,58,20.70
2010,07,26,18,59,20.70
2010,07,26,19,00,20.70
2010,07,26,19,01,20.70
2010,07,26,19,02,20.70
2010,07,26,19,03,20.70
2010,07,26,19,04,20.70
2010,07,26,19,05,20.70
